Hourly Weather Roundup
Issued by NWS Central Illinois

Home | Current Version | Previous Version | Graphics & Text | Print | Product List | Glossary On
Versions: 1 2 3 4 5 6 7 8 9 10 11 12 13 14 15 16 17 18 19 20 21 22 23 24 25 26 27 28 29 30 31 32 33 34 35 36 37 38 39 40 41 42 43 44 45 46 47 48 49 50
000
NZUS43 KILX 011810
HWRILX

AREA WEATHER ROUNDUP
NATIONAL WEATHER SERVICE, LINCOLN IL
1200 PM CST SUN MAR 01 2015


CITY           SKY/WX    TMP DP  RH WIND       PRES   REMARKS
BLOOMINGTON    PTSUNNY   26  20  78 N6        30.36S WCI  19
6HR MIN TEMP:  21; 6HR MAX TEMP:  26; 6HR PCP: TRACE;

CHAMPAIGN      LGT SNOW  26  22  84 CALM      30.34F VSB 3/4
6HR MIN TEMP:  22; 6HR MAX TEMP:  27; 6HR PCP:  0.10;

DECATUR        LGT SNOW  26  24  92 CALM      30.36S VSB 1
6HR MIN TEMP:  22; 6HR MAX TEMP:  27; 6HR PCP:  0.01;

FLORA            N/A     31  30  97 CALM      30.36F FOG
6HR MIN TEMP:  27; 6HR MAX TEMP:  31; 6HR PCP:  0.04;

GALESBURG      CLOUDY    23  19  81 W6        30.38S WCI  16
JACKSONVILLE   CLOUDY    28  24  83 NW5       30.39S WCI  23
6HR MIN TEMP:  24; 6HR MAX TEMP:  28; 6HR PCP:  0.03;

LACON          LGT SNOW  23  18  80 NW5       30.38S WCI  17
6HR MIN TEMP:  18; 6HR MAX TEMP:  23; 6HR PCP:  0.05;

LAWRENCEVILLE  FOG       33  32  96 CALM      30.35F VSB 1
6HR MIN TEMP:  29; 6HR MAX TEMP:  34; 6HR PCP:  0.07;

LITCHFIELD     LGT SNOW  27  24  87 NW6       30.36F VSB 1   WCI  21
$$


CITY           SKY/WX    TMP DP  RH WIND       PRES   REMARKS
LINCOLN        CLOUDY    28  23  79 N5        30.39S WCI  23
6HR MIN TEMP:  23; 6HR MAX TEMP:  28; 6HR PCP:  0.02;

MACOMB         CLOUDY    24  19  83 N3        30.41F
MATTOON        LGT SNOW  29  25  85 N5        30.32F VSB 1   WCI  24
6HR MIN TEMP:  24; 6HR MAX TEMP:  29; 6HR PCP:  0.07;

MT CARMEL AP   CLOUDY    34  32  93 CALM      30.36F FOG
OLNEY-NOBLE AP CLOUDY    32  30  93 NW3       30.37S FOG
PARIS          LGT SNOW  28  26  91 NW3       30.35F
6HR MIN TEMP:  24; 6HR MAX TEMP:  29; 6HR PCP:  0.02;

PEORIA         CLOUDY    28  20  71 W3        30.38S
6HR MIN TEMP:  22; 6HR MAX TEMP:  29; 6HR PCP:  0.16;

PONTIAC        LGT SNOW  24  20  85 NW5       30.37F WCI  18
RANTOUL        LGT SNOW  27  23  86 CALM      30.35S VSB 1
6HR MIN TEMP:  23; 6HR MAX TEMP:  27; 6HR PCP:  0.02;

ROBINSON       CLOUDY    32  31  96 CALM      30.36F FOG
6HR MIN TEMP:  27; 6HR MAX TEMP:  32; 6HR PCP:  0.24;

SPRINGFIELD    CLOUDY    27  21  78 N8        30.38S WCI  19
6HR MIN TEMP:  23; 6HR MAX TEMP:  28; 6HR PCP:  0.07;

TAYLORVILLE    LGT SNOW  27  23  86 N6        30.37S VSB 1   WCI  20
$$

...REGIONAL REPORTS...


CITY           SKY/WX    TMP DP  RH WIND       PRES   REMARKS
CHICAGO O`HARE CLOUDY    21  16  81 W7        30.34F HAZE    WCI  12
KANKAKEE       LGT SNOW  24  20  85 W7        30.37S WCI  16
MOLINE         CLOUDY    25  15  66 W8        30.38S WCI  16
MOUNT VERNON   CLOUDY    32  28  86 W3        30.37F
PITTSFIELD     CLOUDY    28  22  79 NW5       30.40R WCI  22
QUINCY         CLOUDY    25  19  78 NW6       30.39S WCI  18
ROCKFORD       PTSUNNY   23  13  65 NW8       30.36F WCI  14
$$


CITY           SKY/WX    TMP DP  RH WIND       PRES   REMARKS
BURLINGTON     CLOUDY    24  17  74 W5        30.38F WCI  18
CEDAR RAPIDS   SUNNY     24  17  74 W10       30.34F WCI  14
DES MOINES     MOSUNNY   29  17  61 W10       30.37R WCI  20
KIRKSVILLE     CLOUDY    27  19  72 CALM      30.39F
OTTUMWA        CLOUDY    25  17  72 W7        30.37F WCI  17
ST LOUIS       FRZ DRZL  30  25  81 NW5       30.38S WCI  25
$$


CITY           SKY/WX    TMP DP  RH WIND       PRES   REMARKS
TERRE HAUTE    CLOUDY    31  27  85 N5        30.34F FOG     WCI  26
EVANSVILLE     CLOUDY    35  29  78 NW5       30.36F WCI  31
INDIANAPOLIS   DRIZZLE   30  26  85 NW6       30.31F FOG     WCI  24
LAFAYETTE      LGT SNOW  26  23  88 CALM      30.34F VSB 3/4
MADISON        CLOUDY    22  13  68 VRB7G16   30.30S WCI  13
MILWAUKEE      PTSUNNY   23  13  65 VRB6      30.31F HAZE    WCI  16
$$




USA.gov is the U.S. government's official web portal to all federal, state and local government web resources and services.